Weather History for Tekamah, NE

Change the Weather History Date:

Tuesday, April 3, 2012

  Actual Average Record
Temperature  
Mean Temperature 58 °F -  
Max Temperature 68 °F 56 °F 85 °F (1981)
Min Temperature 51 °F 32 °F 5 °F (1975)
Degree Days  
Heating Degree Days 6    
Growing Degree Days 8 (Base 50)    
Moisture  
Dew Point 43 °F    
Average Humidity 59    
Maximum Humidity 74    
Minimum Humidity 42    
Precipitation  
Precipitation 0.00 in - - ()
Sea Level Pressure  
Sea Level Pressure 29.93 in    
Wind  
Wind Speed 18 mph (North)    
Max Wind Speed 26 mph    
Max Gust Speed 34 mph    
Visibility 10 miles    
Events      
Averages and records for this station are not official NWS values.
T = Trace of Precipitation, MM = Missing Value Source: NWS Daily Summary

Daily Weather History Graph

Daily Weather History Graph

Search for Another Location

Airport:

Trip Planner

Search our weather history database for the weather conditions in past years. The results will help you decide how hot, cold, wet, or windy it might be!

Date:

Astronomy

Apr. 03, 2012 Rise Set
Actual Time 7:03 AM CDT 7:52 PM CDT
Civil Twilight 6:35 AM CDT 8:21 PM CDT
Nautical Twilight 6:01 AM CDT 8:54 PM CDT
Astronomical Twilight 5:27 AM CDT 9:29 PM CDT
Moon 4:35 PM CDT (4/3) 4:55 AM CDT (4/3)
Length of Visible Light 13h 46m
Length of Day
12h 49m
Waxing Gibbous, 87% of the Moon is Illuminated
Apr 3
Waxing Gibbous
Apr 6
Full
Apr 13
Last Quarter
Apr 21
New
Apr 29
First Quarter

Hourly Weather History & Observations

Time (CDT) Temp. Dew Point Humidity Pressure Visibility Wind Dir Wind Speed Gust Speed Precip Events Conditions
12:54 AM 57.0 °F 46.9 °F 69% 29.79 in 7.0 mi NNW 18.4 mph - N/A   Clear
1:54 AM 54.0 °F 45.0 °F 72% 29.82 in 8.0 mi NNW 16.1 mph - N/A   Clear
2:54 AM 53.1 °F 45.0 °F 74% 29.84 in 8.0 mi NNW 16.1 mph - N/A   Clear
3:54 AM 52.0 °F 43.0 °F 71% 29.86 in 10.0 mi NNW 15.0 mph - N/A   Clear
4:54 AM 52.0 °F 43.0 °F 71% 29.87 in 10.0 mi NNW 16.1 mph - N/A   Clear
5:54 AM 51.1 °F 42.1 °F 71% 29.88 in 10.0 mi NNW 17.3 mph 27.6 mph N/A   Clear
6:54 AM 51.1 °F 43.0 °F 74% 29.94 in 10.0 mi North 17.3 mph - N/A   Clear
7:54 AM 52.0 °F 43.0 °F 71% 29.96 in 10.0 mi North 20.7 mph - N/A   Clear
8:54 AM 54.0 °F 44.1 °F 69% 29.98 in 10.0 mi North 23.0 mph - N/A   Overcast
9:54 AM 55.9 °F 44.1 °F 64% 29.98 in 10.0 mi North 26.5 mph 33.4 mph N/A   Mostly Cloudy
10:54 AM 60.1 °F 45.0 °F 57% 29.96 in 10.0 mi NNE 26.5 mph 34.5 mph N/A   Clear
11:54 AM 61.0 °F 45.0 °F 56% 29.96 in 9.0 mi NNE 23.0 mph 29.9 mph N/A   Overcast
12:54 PM 64.0 °F 45.0 °F 50% 29.95 in 9.0 mi North 19.6 mph 26.5 mph N/A   Overcast
1:54 PM 64.9 °F 45.0 °F 48% 29.95 in 10.0 mi NNE 16.1 mph 27.6 mph N/A   Mostly Cloudy
2:54 PM 66.0 °F 45.0 °F 47% 29.96 in 10.0 mi NNE 13.8 mph 24.2 mph N/A   Overcast
3:54 PM 66.0 °F 44.1 °F 45% 29.96 in 10.0 mi NE 18.4 mph - N/A   Overcast
4:54 PM 63.0 °F 44.1 °F 50% 29.97 in 9.0 mi NNE 17.3 mph - N/A   Overcast
5:54 PM 63.0 °F 44.1 °F 50% 29.96 in 10.0 mi North 13.8 mph 21.9 mph N/A   Overcast
6:54 PM 63.0 °F 44.1 °F 50% 29.95 in 10.0 mi North 17.3 mph - N/A   Partly Cloudy
8:54 PM 62.1 °F 43.0 °F 50% 29.95 in 10.0 mi NNE 15.0 mph - N/A   Overcast
9:54 PM 59.0 °F 42.1 °F 53% 29.96 in 10.0 mi North 12.7 mph - N/A   Mostly Cloudy
10:54 PM 59.0 °F 37.0 °F 44% 29.97 in 10.0 mi NNE 12.7 mph - N/A   Overcast
11:54 PM 57.9 °F 35.1 °F 42% 29.95 in 10.0 mi NNE 13.8 mph - N/A   Overcast